| time (UTC) | temp C | wind direction | speed KPH | gust KPH | rain 1hr cm | rain 24hr cm | rain mn cm | humidity % | barometer mb |
| 20260508020257 | 5 | 274 | 0.0 | 0.0 | 0.00 | 0.03 | 0.03 | 67 | 1005.5 |
| 20260508015753 | 5 | 274 | 0.0 | 0.0 | 0.00 | 0.03 | 0.03 | 67 | 1005.5 |
| 20260508015251 | 5 | 274 | 0.0 | 0.0 | 0.00 | 0.03 | 0.03 | 66 | 1005.5 |
| 20260508014747 | 5 | 274 | 0.0 | 0.0 | 0.00 | 0.03 | 0.03 | 66 | 1005.4 |
| 20260508014244 | 5 | 274 | 0.0 | 0.0 | 0.00 | 0.03 | 0.03 | 66 | 1005.4 |
| 20260508013740 | 5 | 274 | 0.0 | 0.0 | 0.00 | 0.03 | 0.03 | 66 | 1005.3 |
| 20260508013237 | 5 | 274 | 0.0 | 0.0 | 0.00 | 0.03 | 0.03 | 65 | 1005.1 |
| 20260508012734 | 5 | 274 | 0.0 | 0.0 | 0.00 | 0.03 | 0.03 | 66 | 1005.3 |
| 20260508012231 | 5 | 274 | 0.0 | 0.0 | 0.00 | 0.03 | 0.03 | 65 | 1005.5 |
| 20260508011729 | 5 | 274 | 0.0 | 0.0 | 0.00 | 0.03 | 0.03 | 65 | 1005.2 |
| 20260508011226 | 5 | 274 | 0.0 | 0.0 | 0.00 | 0.03 | 0.03 | 67 | 1005.0 |
| 20260508010722 | 6 | 274 | 0.0 | 0.0 | 0.00 | 0.03 | 0.03 | 63 | 1005.0 |
| 20260508010221 | 6 | 274 | 0.0 | 0.0 | 0.00 | 0.03 | 0.03 | 62 | 1005.0 |
| 20260508005718 | 6 | 274 | 0.0 | 0.0 | 0.00 | 0.03 | 0.03 | 62 | 1004.7 |
| 20260508005215 | 6 | 274 | 0.0 | 0.0 | 0.00 | 0.03 | 0.03 | 61 | 1004.7 |
| 20260508004710 | 6 | 274 | 0.0 | 0.0 | 0.00 | 0.03 | 0.03 | 61 | 1004.9 |
| 20260508004207 | 6 | 274 | 0.0 | 0.0 | 0.00 | 0.03 | 0.03 | 60 | 1004.6 |
| 20260508003703 | 7 | 274 | 0.0 | 0.0 | 0.00 | 0.03 | 0.03 | 58 | 1004.3 |
| 20260508003201 | 7 | 274 | 0.0 | 0.0 | 0.00 | 0.03 | 0.03 | 57 | 1004.4 |
| 20260508002657 | 7 | 274 | 0.0 | 0.0 | 0.00 | 0.03 | 0.03 | 57 | 1004.5 |
| 20260508002155 | 7 | 274 | 0.0 | 0.0 | 0.00 | 0.03 | 0.03 | 56 | 1004.1 |
| 20260508001650 | 7 | 274 | 0.0 | 0.0 | 0.00 | 0.03 | 0.03 | 53 | 1004.1 |
| 20260508001146 | 8 | 274 | 0.0 | 0.0 | 0.00 | 0.03 | 0.03 | 51 | 1003.8 |
| 20260508000642 | 8 | 274 | 0.0 | 0.0 | 0.00 | 0.03 | 0.03 | 52 | 1004.0 |
| 20260508000139 | 8 | 274 | 0.0 | 0.0 | 0.00 | 0.03 | 0.03 | 48 | 1003.8 |
| 20260507235636 | 8 | 274 | 0.0 | 0.0 | 0.00 | 0.03 | 0.03 | 51 | 1004.1 |
| 20260507235134 | 9 | 274 | 0.0 | 0.0 | 0.00 | 0.03 | 0.03 | 48 | 1003.7 |
| 20260507234630 | 10 | 274 | 0.0 | 0.0 | 0.00 | 0.03 | 0.03 | 48 | 1003.8 |
| 20260507234127 | 11 | 274 | 0.0 | 0.0 | 0.00 | 0.03 | 0.03 | 42 | 1003.8 |
| 20260507233623 | 11 | 274 | 0.0 | 0.0 | 0.00 | 0.03 | 0.03 | 39 | 1003.7 |
| 20260507233122 | 11 | 274 | 0.0 | 1.6 | 0.00 | 0.03 | 0.03 | 39 | 1003.7 |
| 20260507232618 | 11 | 274 | 1.6 | 3.2 | 0.00 | 0.03 | 0.03 | 38 | 1003.6 |
| 20260507232116 | 12 | 274 | 0.0 | 3.2 | 0.00 | 0.03 | 0.03 | 39 | 1003.5 |
| 20260507231612 | 12 | 274 | 3.2 | 4.8 | 0.00 | 0.03 | 0.03 | 40 | 1003.4 |
| 20260507231109 | 12 | 274 | 0.0 | 3.2 | 0.00 | 0.03 | 0.03 | 39 | 1003.4 |
| 20260507230605 | 12 | 274 | 0.0 | 0.0 | 0.00 | 0.03 | 0.03 | 40 | 1003.1 |
| 20260507225557 | 12 | 274 | 0.0 | 1.6 | 0.00 | 0.03 | 0.03 | 37 | 1002.9 |
| 20260507225054 | 13 | 274 | 0.0 | 3.2 | 0.00 | 0.03 | 0.03 | 34 | 1003.1 |
| 20260507224549 | 13 | 274 | 1.6 | 6.4 | 0.00 | 0.03 | 0.03 | 30 | 1003.0 |
| 20260507224046 | 13 | 274 | 0.0 | 0.0 | 0.00 | 0.03 | 0.03 | 35 | 1003.0 |
| 20260507223542 | 13 | 274 | 1.6 | 1.6 | 0.00 | 0.03 | 0.03 | 32 | 1003.0 |
| 20260507223040 | 13 | 274 | 3.2 | 6.4 | 0.00 | 0.03 | 0.03 | 29 | 1002.6 |
| 20260507222537 | 13 | 274 | 0.0 | 3.2 | 0.00 | 0.03 | 0.03 | 30 | 1002.5 |
| 20260507222033 | 13 | 274 | 0.0 | 1.6 | 0.00 | 0.03 | 0.03 | 30 | 1002.8 |
| 20260507221529 | 13 | 274 | 1.6 | 4.8 | 0.00 | 0.03 | 0.03 | 34 | 1002.6 |
| 20260507221026 | 13 | 274 | 0.0 | 6.4 | 0.00 | 0.03 | 0.03 | 31 | 1002.8 |
| 20260507220524 | 13 | 274 | 0.0 | 0.0 | 0.00 | 0.03 | 0.03 | 33 | 1002.5 |
| 20260507220021 | 13 | 274 | 0.0 | 1.6 | 0.00 | 0.03 | 0.03 | 34 | 1002.6 |
| 20260507215517 | 13 | 274 | 1.6 | 6.4 | 0.00 | 0.03 | 0.03 | 30 | 1002.7 |
| 20260507215015 | 13 | 274 | 0.0 | 0.0 | 0.00 | 0.03 | 0.03 | 34 | 1002.5 |
| 20260507214512 | 14 | 274 | 1.6 | 3.2 | 0.00 | 0.03 | 0.03 | 29 | 1002.5 |
| 20260507214008 | 14 | 274 | 1.6 | 3.2 | 0.00 | 0.03 | 0.03 | 30 | 1002.6 |
| 20260507213504 | 15 | 274 | 1.6 | 4.8 | 0.00 | 0.03 | 0.03 | 30 | 1002.5 |
| 20260507213001 | 15 | 274 | 0.0 | 4.8 | 0.00 | 0.03 | 0.03 | 30 | 1002.6 |
| 20260507212457 | 15 | 274 | 0.0 | 6.4 | 0.00 | 0.03 | 0.03 | 28 | 1002.4 |
| 20260507211954 | 15 | 274 | 0.0 | 0.0 | 0.00 | 0.03 | 0.03 | 32 | 1002.6 |
| 20260507211450 | 15 | 274 | 3.2 | 3.2 | 0.00 | 0.03 | 0.03 | 27 | 1002.5 |
| 20260507210947 | 15 | 274 | 0.0 | 1.6 | 0.00 | 0.03 | 0.03 | 27 | 1002.5 |
| 20260507210444 | 15 | 274 | 1.6 | 6.4 | 0.00 | 0.03 | 0.03 | 30 | 1002.7 |
| 20260507205941 | 16 | 274 | 0.0 | 1.6 | 0.00 | 0.03 | 0.03 | 27 | 1002.5 |
| 20260507205438 | 15 | 274 | 0.0 | 4.8 | 0.00 | 0.03 | 0.03 | 29 | 1002.2 |
| 20260507204934 | 13 | 274 | 0.0 | 0.0 | 0.00 | 0.03 | 0.03 | 29 | 1002.4 |
| 20260507204431 | 14 | 274 | 0.0 | 0.0 | 0.00 | 0.03 | 0.03 | 29 | 1002.3 |
| 20260507203928 | 15 | 274 | 3.2 | 4.8 | 0.00 | 0.03 | 0.03 | 28 | 1002.4 |
| 20260507203426 | 15 | 274 | 1.6 | 9.7 | 0.00 | 0.03 | 0.03 | 27 | 1002.4 |
| 20260507202922 | 16 | 274 | 1.6 | 3.2 | 0.00 | 0.03 | 0.03 | 31 | 1002.2 |
| 20260507202419 | 16 | 274 | 0.0 | 4.8 | 0.00 | 0.03 | 0.03 | 26 | 1002.3 |
| 20260507201914 | 15 | 274 | 0.0 | 6.4 | 0.00 | 0.03 | 0.03 | 26 | 1002.2 |
| 20260507201410 | 15 | 274 | 0.0 | 9.7 | 0.00 | 0.03 | 0.03 | 27 | 1002.4 |
| 20260507200907 | 15 | 274 | 0.0 | 6.4 | 0.00 | 0.03 | 0.03 | 28 | 1002.1 |
| 20260507200403 | 15 | 274 | 3.2 | 4.8 | 0.00 | 0.03 | 0.03 | 27 | 1002.2 |
| 20260507195859 | 15 | 274 | 0.0 | 1.6 | 0.00 | 0.03 | 0.03 | 31 | 1002.3 |
| 20260507195356 | 15 | 274 | 0.0 | 1.6 | 0.00 | 0.03 | 0.03 | 29 | 1002.2 |
| 20260507194853 | 15 | 274 | 1.6 | 9.7 | 0.00 | 0.03 | 0.03 | 28 | 1002.2 |
| 20260507194350 | 14 | 274 | 1.6 | 3.2 | 0.00 | 0.03 | 0.03 | 32 | 1002.5 |
| 20260507193846 | 13 | 274 | 0.0 | 0.0 | 0.00 | 0.03 | 0.03 | 36 | 1002.6 |
| 20260507193344 | 14 | 274 | 1.6 | 9.7 | 0.00 | 0.03 | 0.03 | 31 | 1002.6 |
| 20260507192839 | 15 | 274 | 0.0 | 6.4 | 0.00 | 0.03 | 0.03 | 31 | 1002.5 |
| 20260507192336 | 15 | 274 | 1.6 | 9.7 | 0.00 | 0.03 | 0.03 | 30 | 1002.4 |
| 20260507191832 | 15 | 274 | 1.6 | 3.2 | 0.00 | 0.03 | 0.03 | 31 | 1002.6 |
| 20260507191329 | 15 | 274 | 0.0 | 3.2 | 0.00 | 0.03 | 0.03 | 30 | 1002.8 |
| 20260507190826 | 16 | 174 | 3.2 | 11.3 | 0.00 | 0.03 | 0.03 | 28 | 1003.0 |
| 20260507190324 | 16 | 174 | 3.2 | 12.9 | 0.00 | 0.03 | 0.03 | 29 | 1002.6 |
| 20260507185823 | 15 | 174 | 1.6 | 9.7 | 0.00 | 0.03 | 0.03 | 28 | 1002.7 |
| 20260507185319 | 15 | 174 | 0.0 | 4.8 | 0.00 | 0.03 | 0.03 | 29 | 1002.6 |
| 20260507184816 | 14 | 174 | 3.2 | 4.8 | 0.00 | 0.03 | 0.03 | 34 | 1002.6 |
| 20260507184314 | 15 | 174 | 3.2 | 3.2 | 0.00 | 0.03 | 0.03 | 33 | 1002.7 |
| 20260507183811 | 13 | 174 | 0.0 | 3.2 | 0.00 | 0.03 | 0.03 | 35 | 1002.7 |
| 20260507183308 | 14 | 174 | 1.6 | 4.8 | 0.00 | 0.03 | 0.03 | 34 | 1002.7 |
| 20260507182805 | 15 | 174 | 3.2 | 4.8 | 0.00 | 0.03 | 0.03 | 36 | 1002.5 |
| 20260507182300 | 15 | 174 | 0.0 | 1.6 | 0.00 | 0.03 | 0.03 | 37 | 1002.7 |
| 20260507181757 | 15 | 174 | 1.6 | 9.7 | 0.00 | 0.03 | 0.03 | 32 | 1002.9 |
| 20260507181253 | 15 | 174 | 3.2 | 6.4 | 0.00 | 0.03 | 0.03 | 32 | 1002.8 |
| 20260507180750 | 15 | 174 | 1.6 | 4.8 | 0.00 | 0.03 | 0.03 | 35 | 1002.7 |
| 20260507180247 | 14 | 174 | 1.6 | 6.4 | 0.00 | 0.03 | 0.03 | 41 | 1003.1 |
| 20260507175742 | 14 | 174 | 0.0 | 3.2 | 0.00 | 0.03 | 0.03 | 39 | 1003.2 |
| 20260507175240 | 15 | 174 | 1.6 | 6.4 | 0.00 | 0.03 | 0.03 | 39 | 1003.0 |
| 20260507174737 | 15 | 174 | 6.4 | 9.7 | 0.00 | 0.03 | 0.03 | 38 | 1002.8 |
| 20260507174235 | 14 | 174 | 4.8 | 6.4 | 0.00 | 0.03 | 0.03 | 34 | 1003.0 |
| 20260507173733 | 15 | 174 | 9.7 | 14.5 | 0.00 | 0.03 | 0.03 | 35 | 1003.1 |
| 20260507173229 | 15 | 174 | 4.8 | 9.7 | 0.00 | 0.03 | 0.03 | 34 | 1003.1 |
| 20260507172725 | 15 | 174 | 0.0 | 6.4 | 0.00 | 0.03 | 0.03 | 34 | 1003.1 |
| 20260507172222 | 14 | 174 | 0.0 | 6.4 | 0.00 | 0.03 | 0.03 | 43 | 1003.2 |
| 20260507171717 | 14 | 174 | 0.0 | 9.7 | 0.00 | 0.03 | 0.03 | 46 | 1003.1 |
| 20260507171215 | 14 | 174 | 1.6 | 6.4 | 0.00 | 0.03 | 0.03 | 47 | 1003.2 |
| 20260507170711 | 16 | 174 | 1.6 | 12.9 | 0.00 | 0.03 | 0.03 | 42 | 1003.3 |
| 20260507170208 | 16 | 174 | 4.8 | 6.4 | 0.00 | 0.03 | 0.03 | 38 | 1003.0 |
| 20260507165703 | 15 | 174 | 1.6 | 3.2 | 0.00 | 0.03 | 0.03 | 39 | 1003.2 |
| 20260507165159 | 14 | 174 | 3.2 | 6.4 | 0.00 | 0.03 | 0.03 | 43 | 1003.3 |
| 20260507164655 | 13 | 174 | 1.6 | 6.4 | 0.00 | 0.03 | 0.03 | 43 | 1003.3 |
| 20260507164148 | 15 | 174 | 0.0 | 6.4 | 0.00 | 0.03 | 0.03 | 44 | 1003.3 |
| 20260507163644 | 15 | 174 | 3.2 | 6.4 | 0.00 | 0.03 | 0.03 | 40 | 1003.4 |
| 20260507163143 | 15 | 174 | 1.6 | 4.8 | 0.00 | 0.03 | 0.03 | 41 | 1003.3 |
| 20260507162638 | 15 | 174 | 0.0 | 11.3 | 0.00 | 0.03 | 0.03 | 43 | 1003.3 |
| 20260507162135 | 15 | 174 | 0.0 | 1.6 | 0.00 | 0.03 | 0.03 | 41 | 1003.2 |
| 20260507161631 | 13 | 174 | 0.0 | 3.2 | 0.00 | 0.03 | 0.03 | 45 | 1003.4 |
| 20260507161127 | 13 | 174 | 6.4 | 6.4 | 0.00 | 0.03 | 0.03 | 44 | 1003.6 |
| 20260507160624 | 13 | 174 | 0.0 | 3.2 | 0.00 | 0.03 | 0.03 | 51 | 1003.8 |
| 20260507160121 | 13 | 174 | 1.6 | 4.8 | 0.00 | 0.03 | 0.03 | 49 | 1003.7 |
| 20260507155616 | 14 | 174 | 3.2 | 4.8 | 0.00 | 0.03 | 0.03 | 49 | 1003.6 |
| 20260507155113 | 15 | 174 | 0.0 | 6.4 | 0.00 | 0.03 | 0.03 | 49 | 1003.7 |
| 20260507154610 | 14 | 174 | 1.6 | 9.7 | 0.00 | 0.03 | 0.03 | 45 | 1003.8 |
| 20260507154107 | 13 | 174 | 3.2 | 4.8 | 0.00 | 0.03 | 0.03 | 48 | 1003.9 |
| 20260507153603 | 12 | 174 | 0.0 | 1.6 | 0.00 | 0.03 | 0.03 | 56 | 1003.9 |
| 20260507153100 | 13 | 174 | 1.6 | 3.2 | 0.00 | 0.03 | 0.03 | 49 | 1004.0 |
| 20260507152556 | 15 | 174 | 0.0 | 6.4 | 0.00 | 0.03 | 0.03 | 48 | 1003.8 |
| 20260507152052 | 13 | 174 | 0.0 | 4.8 | 0.00 | 0.03 | 0.03 | 54 | 1004.0 |
| 20260507151548 | 13 | 174 | 0.0 | 1.6 | 0.00 | 0.03 | 0.03 | 50 | 1004.1 |
| 20260507151045 | 13 | 174 | 1.6 | 4.8 | 0.00 | 0.03 | 0.03 | 47 | 1004.1 |
| 20260507150537 | 14 | 174 | 4.8 | 6.4 | 0.00 | 0.03 | 0.03 | 45 | 1003.8 |
| 20260507150033 | 15 | 174 | 0.0 | 3.2 | 0.00 | 0.03 | 0.03 | 43 | 1003.8 |
| 20260507145528 | 15 | 174 | 0.0 | 1.6 | 0.00 | 0.03 | 0.03 | 45 | 1003.6 |
| 20260507145027 | 13 | 174 | 4.8 | 4.8 | 0.00 | 0.03 | 0.03 | 47 | 1003.9 |
| 20260507144523 | 14 | 174 | 4.8 | 9.7 | 0.00 | 0.03 | 0.03 | 45 | 1004.0 |
| 20260507144020 | 14 | 174 | 0.0 | 11.3 | 0.00 | 0.03 | 0.03 | 51 | 1004.1 |
| 20260507143517 | 13 | 174 | 1.6 | 3.2 | 0.00 | 0.03 | 0.03 | 51 | 1003.9 |
| 20260507143015 | 13 | 174 | 0.0 | 0.0 | 0.00 | 0.03 | 0.03 | 45 | 1004.1 |
| 20260507142510 | 13 | 174 | 1.6 | 4.8 | 0.00 | 0.03 | 0.03 | 48 | 1004.0 |
| 20260507142007 | 13 | 174 | 0.0 | 1.6 | 0.00 | 0.03 | 0.03 | 51 | 1003.9 |
| 20260507141503 | 13 | 174 | 4.8 | 4.8 | 0.00 | 0.03 | 0.03 | 47 | 1004.0 |
| 20260507141000 | 13 | 174 | 0.0 | 3.2 | 0.00 | 0.03 | 0.03 | 54 | 1004.3 |
| 20260507140456 | 12 | 174 | 0.0 | 0.0 | 0.00 | 0.03 | 0.03 | 54 | 1004.4 |
| 20260507135954 | 12 | 174 | 0.0 | 3.2 | 0.00 | 0.03 | 0.03 | 52 | 1004.5 |
| 20260507135451 | 12 | 174 | 0.0 | 1.6 | 0.00 | 0.03 | 0.03 | 57 | 1004.5 |
| 20260507134948 | 12 | 174 | 0.0 | 3.2 | 0.00 | 0.03 | 0.03 | 57 | 1004.4 |
| 20260507134444 | 11 | 174 | 0.0 | 3.2 | 0.00 | 0.03 | 0.03 | 61 | 1004.3 |
| 20260507133940 | 11 | 174 | 0.0 | 3.2 | 0.00 | 0.03 | 0.03 | 60 | 1004.5 |
| 20260507133437 | 11 | 174 | 0.0 | 1.6 | 0.00 | 0.03 | 0.03 | 60 | 1004.4 |
| 20260507132936 | 11 | 174 | 0.0 | 1.6 | 0.00 | 0.03 | 0.03 | 61 | 1004.6 |
| 20260507132431 | 11 | 174 | 0.0 | 1.6 | 0.00 | 0.03 | 0.03 | 65 | 1004.5 |
| 20260507131927 | 11 | 174 | 0.0 | 6.4 | 0.00 | 0.03 | 0.03 | 64 | 1004.7 |
| 20260507131425 | 11 | 174 | 1.6 | 3.2 | 0.00 | 0.03 | 0.03 | 65 | 1004.6 |
| 20260507130922 | 11 | 174 | 1.6 | 4.8 | 0.00 | 0.03 | 0.03 | 67 | 1004.7 |
| 20260507130419 | 10 | 174 | 1.6 | 3.2 | 0.00 | 0.03 | 0.03 | 68 | 1004.6 |
| 20260507125918 | 10 | 174 | 3.2 | 4.8 | 0.00 | 0.03 | 0.03 | 69 | 1004.8 |
| 20260507125415 | 10 | 174 | 0.0 | 4.8 | 0.00 | 0.03 | 0.03 | 68 | 1004.6 |
| 20260507124912 | 10 | 174 | 0.0 | 0.0 | 0.00 | 0.03 | 0.03 | 69 | 1004.6 |
| 20260507124408 | 10 | 174 | 0.0 | 0.0 | 0.00 | 0.03 | 0.03 | 69 | 1004.8 |
| 20260507123907 | 10 | 174 | 0.0 | 1.6 | 0.00 | 0.03 | 0.03 | 71 | 1004.9 |
| 20260507123403 | 10 | 174 | 0.0 | 1.6 | 0.00 | 0.03 | 0.03 | 74 | 1004.6 |
| 20260507122900 | 10 | 174 | 0.0 | 3.2 | 0.00 | 0.03 | 0.03 | 75 | 1005.0 |
| 20260507122355 | 10 | 174 | 0.0 | 6.4 | 0.00 | 0.03 | 0.03 | 73 | 1005.4 |
| 20260507121852 | 10 | 174 | 0.0 | 0.0 | 0.00 | 0.03 | 0.03 | 71 | 1005.2 |
| 20260507121347 | 9 | 174 | 0.0 | 0.0 | 0.00 | 0.03 | 0.03 | 78 | 1005.2 |
| 20260507120844 | 8 | 174 | 0.0 | 0.0 | 0.00 | 0.03 | 0.03 | 79 | 1005.1 |
| 20260507120340 | 8 | 174 | 0.0 | 0.0 | 0.00 | 0.03 | 0.03 | 82 | 1005.0 |
| 20260507115837 | 7 | 174 | 1.6 | 3.2 | 0.00 | 0.03 | 0.03 | 89 | 1005.1 |
| 20260507115332 | 7 | 174 | 0.0 | 0.0 | 0.00 | 0.03 | 0.03 | 92 | 1005.2 |
| 20260507114828 | 7 | 174 | 0.0 | 3.2 | 0.00 | 0.03 | 0.03 | 93 | 1005.0 |
| 20260507114326 | 7 | 174 | 0.0 | 3.2 | 0.00 | 0.03 | 0.03 | 95 | 1005.1 |
| 20260507113823 | 7 | 174 | 0.0 | 0.0 | 0.00 | 0.03 | 0.03 | 95 | 1005.2 |
| 20260507113320 | 6 | 174 | 0.0 | 1.6 | 0.00 | 0.03 | 0.03 | 95 | 1004.8 |
| 20260507112818 | 6 | 174 | 0.0 | 1.6 | 0.00 | 0.03 | 0.03 | 95 | 1005.2 |
| 20260507112314 | 6 | 174 | 0.0 | 0.0 | 0.00 | 0.03 | 0.03 | 95 | 1004.8 |
| 20260507111812 | 6 | 174 | 0.0 | 0.0 | 0.00 | 0.03 | 0.03 | 95 | 1005.0 |
| 20260507111308 | 6 | 174 | 0.0 | 0.0 | 0.00 | 0.03 | 0.03 | 95 | 1005.1 |
| 20260507110805 | 5 | 174 | 0.0 | 0.0 | 0.00 | 0.03 | 0.03 | 95 | 1005.2 |
| 20260507110301 | 5 | 174 | 0.0 | 0.0 | 0.00 | 0.03 | 0.03 | 95 | 1005.3 |
| 20260507105758 | 5 | 174 | 0.0 | 0.0 | 0.00 | 0.03 | 0.03 | 95 | 1005.4 |
| 20260507105254 | 5 | 174 | 0.0 | 0.0 | 0.00 | 0.03 | 0.03 | 95 | 1005.3 |
| 20260507104751 | 5 | 174 | 0.0 | 0.0 | 0.00 | 0.03 | 0.03 | 95 | 1005.0 |
| 20260507104247 | 5 | 174 | 0.0 | 0.0 | 0.00 | 0.03 | 0.03 | 95 | 1005.2 |
| 20260507103743 | 5 | 174 | 0.0 | 0.0 | 0.00 | 0.03 | 0.03 | 95 | 1005.4 |
| 20260507103235 | 5 | 174 | 0.0 | 0.0 | 0.00 | 0.03 | 0.03 | 95 | 1005.0 |
| 20260507102731 | 5 | 174 | 0.0 | 0.0 | 0.00 | 0.03 | 0.03 | 95 | 1005.2 |
| 20260507102228 | 5 | 174 | 0.0 | 0.0 | 0.00 | 0.03 | 0.03 | 95 | 1005.2 |
| 20260507101724 | 5 | 174 | 0.0 | 0.0 | 0.00 | 0.03 | 0.03 | 95 | 1005.4 |
| 20260507101219 | 5 | 174 | 0.0 | 0.0 | 0.00 | 0.03 | 0.03 | 95 | 1005.4 |
| 20260507100716 | 5 | 174 | 0.0 | 0.0 | 0.00 | 0.03 | 0.03 | 95 | 1005.4 |
| 20260507100215 | 5 | 174 | 0.0 | 0.0 | 0.00 | 0.03 | 0.03 | 95 | 1005.4 |
| 20260507095712 | 5 | 174 | 0.0 | 0.0 | 0.00 | 0.03 | 0.03 | 95 | 1005.1 |
| 20260507095209 | 5 | 174 | 0.0 | 0.0 | 0.00 | 0.03 | 0.03 | 95 | 1005.4 |
| 20260507094706 | 5 | 174 | 0.0 | 0.0 | 0.00 | 0.03 | 0.03 | 95 | 1005.1 |
| 20260507094203 | 5 | 174 | 0.0 | 0.0 | 0.00 | 0.03 | 0.03 | 95 | 1005.1 |
| 20260507093659 | 5 | 174 | 0.0 | 0.0 | 0.00 | 0.03 | 0.03 | 95 | 1004.5 |
| 20260507093158 | 5 | 174 | 0.0 | 0.0 | 0.00 | 0.03 | 0.03 | 95 | 1004.7 |
| 20260507092655 | 5 | 174 | 0.0 | 0.0 | 0.00 | 0.03 | 0.03 | 95 | 1004.6 |
| 20260507092151 | 5 | 174 | 0.0 | 0.0 | 0.00 | 0.03 | 0.03 | 95 | 1004.2 |
| 20260507091648 | 5 | 174 | 0.0 | 0.0 | 0.00 | 0.03 | 0.03 | 95 | 1004.5 |
| 20260507091144 | 5 | 174 | 0.0 | 0.0 | 0.00 | 0.03 | 0.03 | 95 | 1004.6 |
| 20260507090640 | 6 | 174 | 0.0 | 0.0 | 0.00 | 0.03 | 0.03 | 95 | 1004.6 |
| 20260507090137 | 6 | 174 | 0.0 | 0.0 | 0.00 | 0.03 | 0.03 | 95 | 1004.6 |
| 20260507085634 | 6 | 174 | 0.0 | 0.0 | 0.00 | 0.03 | 0.03 | 95 | 1005.0 |
| 20260507085131 | 6 | 174 | 0.0 | 0.0 | 0.00 | 0.03 | 0.03 | 95 | 1004.9 |
| 20260507084628 | 6 | 174 | 0.0 | 0.0 | 0.00 | 0.03 | 0.03 | 95 | 1004.6 |
| 20260507084124 | 6 | 174 | 0.0 | 0.0 | 0.00 | 0.03 | 0.03 | 95 | 1004.6 |
| 20260507083621 | 6 | 174 | 0.0 | 0.0 | 0.00 | 0.03 | 0.03 | 95 | 1005.0 |
| 20260507083118 | 6 | 174 | 0.0 | 0.0 | 0.00 | 0.03 | 0.03 | 95 | 1004.9 |
| 20260507082614 | 6 | 174 | 0.0 | 0.0 | 0.00 | 0.03 | 0.03 | 95 | 1004.6 |
| 20260507082110 | 6 | 174 | 0.0 | 3.2 | 0.00 | 0.03 | 0.03 | 95 | 1004.7 |
| 20260507081607 | 6 | 174 | 0.0 | 0.0 | 0.00 | 0.03 | 0.03 | 95 | 1004.7 |
| 20260507081104 | 7 | 174 | 0.0 | 0.0 | 0.00 | 0.03 | 0.03 | 95 | 1004.6 |
| 20260507080600 | 7 | 174 | 0.0 | 3.2 | 0.00 | 0.03 | 0.03 | 95 | 1004.6 |
| 20260507080056 | 7 | 174 | 0.0 | 0.0 | 0.00 | 0.03 | 0.03 | 95 | 1004.4 |
| 20260507075551 | 7 | 174 | 0.0 | 0.0 | 0.00 | 0.03 | 0.03 | 95 | 1004.4 |
| 20260507075048 | 7 | 174 | 0.0 | 0.0 | 0.00 | 0.03 | 0.03 | 95 | 1004.4 |
| 20260507074545 | 7 | 174 | 0.0 | 1.6 | 0.00 | 0.03 | 0.03 | 95 | 1004.3 |
| 20260507074043 | 7 | 174 | 0.0 | 0.0 | 0.00 | 0.03 | 0.03 | 95 | 1004.2 |
| 20260507073538 | 7 | 174 | 0.0 | 6.4 | 0.00 | 0.03 | 0.03 | 95 | 1004.2 |
| 20260507073030 | 7 | 174 | 0.0 | 0.0 | 0.00 | 0.03 | 0.03 | 95 | 1004.2 |
| 20260507072527 | 7 | 174 | 0.0 | 3.2 | 0.00 | 0.03 | 0.03 | 95 | 1004.2 |
| 20260507072024 | 7 | 174 | 0.0 | 6.4 | 0.00 | 0.03 | 0.03 | 95 | 1004.1 |
| 20260507071522 | 7 | 174 | 0.0 | 0.0 | 0.00 | 0.03 | 0.03 | 95 | 1004.1 |
| 20260507071018 | 7 | 174 | 0.0 | 0.0 | 0.00 | 0.03 | 0.03 | 95 | 1004.4 |
| 20260507070515 | 7 | 174 | 0.0 | 0.0 | 0.00 | 0.03 | 0.03 | 95 | 1004.1 |
| 20260507070014 | 7 | 174 | 0.0 | 3.2 | 0.00 | 0.03 | 0.03 | 95 | 1004.1 |
| 20260507065509 | 8 | 174 | 0.0 | 0.0 | 0.00 | 0.03 | 0.03 | 95 | 1004.2 |
| 20260507065006 | 8 | 174 | 0.0 | 0.0 | 0.00 | 0.03 | 0.03 | 95 | 1004.0 |
| 20260507064504 | 8 | 174 | 0.0 | 0.0 | 0.00 | 0.03 | 0.03 | 95 | 1004.0 |
| 20260507064002 | 8 | 174 | 0.0 | 0.0 | 0.00 | 0.03 | 0.03 | 95 | 1003.6 |
| 20260507063459 | 8 | 174 | 0.0 | 0.0 | 0.00 | 0.03 | 0.03 | 95 | 1003.8 |
| 20260507062956 | 8 | 174 | 0.0 | 0.0 | 0.00 | 0.03 | 0.03 | 95 | 1003.6 |
| 20260507062453 | 8 | 174 | 0.0 | 0.0 | 0.00 | 0.03 | 0.03 | 95 | 1003.6 |
| 20260507061950 | 8 | 174 | 0.0 | 0.0 | 0.00 | 0.03 | 0.03 | 95 | 1003.6 |
| 20260507061448 | 8 | 174 | 0.0 | 0.0 | 0.00 | 0.03 | 0.03 | 95 | 1003.6 |
| 20260507060946 | 8 | 174 | 0.0 | 0.0 | 0.00 | 0.03 | 0.03 | 95 | 1003.6 |
| 20260507060443 | 8 | 174 | 0.0 | 0.0 | 0.00 | 0.03 | 0.03 | 95 | 1003.3 |
| 20260507055939 | 8 | 174 | 0.0 | 0.0 | 0.00 | 0.03 | 0.03 | 95 | 1003.3 |
| 20260507055434 | 8 | 174 | 0.0 | 0.0 | 0.00 | 0.03 | 0.03 | 95 | 1003.6 |
| 20260507054932 | 8 | 174 | 0.0 | 0.0 | 0.00 | 0.03 | 0.03 | 95 | 1003.5 |
| 20260507054428 | 8 | 174 | 0.0 | 0.0 | 0.00 | 0.03 | 0.03 | 95 | 1003.3 |
| 20260507053925 | 8 | 174 | 0.0 | 0.0 | 0.00 | 0.03 | 0.03 | 95 | 1003.6 |
| 20260507053422 | 8 | 174 | 0.0 | 0.0 | 0.00 | 0.03 | 0.03 | 95 | 1003.2 |
| 20260507052921 | 8 | 174 | 0.0 | 0.0 | 0.00 | 0.03 | 0.03 | 95 | 1003.2 |
| 20260507052417 | 8 | 174 | 0.0 | 0.0 | 0.00 | 0.03 | 0.03 | 95 | 1003.1 |
| 20260507051909 | 8 | 174 | 0.0 | 0.0 | 0.00 | 0.03 | 0.03 | 95 | 1003.4 |
| 20260507051407 | 8 | 174 | 0.0 | 0.0 | 0.00 | 0.03 | 0.03 | 95 | 1003.3 |
| 20260507050904 | 8 | 174 | 0.0 | 0.0 | 0.00 | 0.03 | 0.03 | 95 | 1003.2 |
| 20260507050400 | 9 | 174 | 0.0 | 0.0 | 0.00 | 0.03 | 0.03 | 95 | 1003.1 |
| 20260507045857 | 9 | 174 | 0.0 | 0.0 | 0.00 | 0.03 | 0.03 | 95 | 1003.1 |
| 20260507045353 | 9 | 174 | 0.0 | 1.6 | 0.00 | 0.03 | 0.03 | 95 | 1003.0 |
| 20260507044851 | 9 | 174 | 0.0 | 3.2 | 0.00 | 0.03 | 0.03 | 95 | 1003.0 |
| 20260507044347 | 10 | 174 | 0.0 | 1.6 | 0.00 | 0.03 | 0.03 | 95 | 1003.0 |
| 20260507043843 | 10 | 174 | 0.0 | 3.2 | 0.00 | 0.03 | 0.03 | 95 | 1003.1 |
| 20260507043340 | 10 | 174 | 3.2 | 3.2 | 0.00 | 0.03 | 0.03 | 95 | 1003.0 |
| 20260507042836 | 10 | 174 | 1.6 | 4.8 | 0.00 | 0.03 | 0.03 | 95 | 1003.1 |
| 20260507042332 | 10 | 174 | 1.6 | 4.8 | 0.00 | 0.03 | 0.03 | 95 | 1003.0 |
| 20260507041829 | 11 | 174 | 0.0 | 3.2 | 0.00 | 0.03 | 0.03 | 95 | 1003.0 |
| 20260507041325 | 11 | 174 | 1.6 | 3.2 | 0.13 | 0.03 | 0.03 | 95 | 1003.0 |
| 20260507040823 | 11 | 174 | 0.0 | 1.6 | 0.13 | 0.03 | 0.03 | 95 | 1002.9 |
| 20260507040319 | 12 | 174 | 0.0 | 0.0 | 0.00 | 0.00 | 0.00 | 95 | 1002.8 |
| 20260507035815 | 12 | 174 | 0.0 | 0.0 | 0.18 | 0.99 | 0.99 | 95 | 1003.0 |
| 20260507035310 | 12 | 174 | 0.0 | 0.0 | 0.48 | 0.99 | 0.99 | 95 | 1002.9 |
| 20260507034809 | 12 | 174 | 0.0 | 1.6 | 0.30 | 0.97 | 0.97 | 95 | 1003.0 |
| 20260507034305 | 12 | 174 | 1.6 | 3.2 | 0.00 | 0.91 | 0.91 | 95 | 1002.9 |
| 20260507033803 | 11 | 174 | 0.0 | 0.0 | 0.00 | 0.91 | 0.91 | 95 | 1002.6 |
| 20260507033301 | 10 | 174 | 0.0 | 1.6 | 0.00 | 0.91 | 0.91 | 95 | 1002.5 |
| 20260507032757 | 10 | 174 | 0.0 | 0.0 | 0.00 | 0.91 | 0.91 | 95 | 1002.5 |
| 20260507032253 | 10 | 174 | 0.0 | 0.0 | 0.00 | 0.91 | 0.91 | 95 | 1002.1 |
| 20260507031750 | 11 | 174 | 0.0 | 0.0 | 0.00 | 0.91 | 0.91 | 95 | 1002.1 |
| 20260507031247 | 10 | 174 | 0.0 | 0.0 | 0.13 | 0.91 | 0.91 | 95 | 1002.1 |
| 20260507030744 | 10 | 174 | 0.0 | 0.0 | 0.13 | 0.91 | 0.91 | 95 | 1002.1 |
| 20260507030241 | 10 | 174 | 0.0 | 0.0 | 0.00 | 0.89 | 0.89 | 95 | 1002.0 |
| 20260507025738 | 10 | 174 | 0.0 | 0.0 | 0.00 | 0.89 | 0.89 | 95 | 1002.1 |
| 20260507025235 | 10 | 174 | 0.0 | 0.0 | 0.00 | 0.89 | 0.89 | 95 | 1002.2 |
| 20260507024734 | 10 | 174 | 0.0 | 0.0 | 0.00 | 0.89 | 0.89 | 95 | 1001.9 |
| 20260507024231 | 10 | 174 | 1.6 | 3.2 | 0.00 | 0.89 | 0.89 | 95 | 1002.0 |
| 20260507023726 | 10 | 174 | 0.0 | 0.0 | 0.00 | 0.89 | 0.89 | 95 | 1002.0 |
| 20260507023223 | 10 | 174 | 0.0 | 0.0 | 0.00 | 0.89 | 0.89 | 95 | 1002.1 |
| 20260507022720 | 10 | 174 | 0.0 | 0.0 | 0.00 | 0.89 | 0.89 | 95 | 1002.2 |
| 20260507022216 | 10 | 174 | 0.0 | 0.0 | 0.00 | 0.89 | 0.89 | 95 | 1002.1 |
| 20260507021712 | 10 | 174 | 0.0 | 0.0 | 0.00 | 0.89 | 0.89 | 95 | 1002.3 |
| 20260507021208 | 10 | 174 | 0.0 | 0.0 | 0.00 | 0.89 | 0.89 | 95 | 1002.2 |